Temp
77 78 76 75 76 76 75 75 75 74 75 75 76 76 75 74 73 71 71 71 70 69 69 68 68 68 69 69 69 68 67 65 63 64 65 66 66 65 67 67 70 69 70
79 77 74 74 74 73 72 72 72 71 73 73 74 75 75 75 73 71 71 73 71 70 70 68 69 72 67 68 69 66 68 66 65 62 64 64 64 66 64 63 70 75 72
77 76 73 72 71 70 71 71 71 71 71 71 72 71 72 72 72 72 72 73 70 70 70 68 68 68 65 68 65 65 65 68 65 63 63 66 63 63 63 64 64 67 70
75 74 72 71 70 70 70 70 69 70 69 69 69 70 71 71 71 71 71 69 69 70 69 69 69 68 66 65 64 65 65 63 65 64 64 65 65 65 64 60 60 63 61
73 71 70 70 71 70 69 69 68 68 68 68 68 68 68 68 72 67 66 65 64 64 65 67 68 67 64 64 65 65 63 61 63 63 63 64 64 60 59 60 57 60 62
70 70 70 70 70 68 67 67 66 66 66 66 66 66 64 67 58 55 56 60 61 61 60 62 63 62 63 59 57 58 60 62 61 61 62 61 59 59 62 59 57 55 54
69 70 70 69 69 68 68 67 64 63 63 62 62 62 61 62 54 50 51 57 56 57 57 58 60 65 60 62 60 57 56 54 56 61 60 61 61 61 59 58 57 56 54
67 68 69 69 67 66 64 62 61 61 59 59 59 59 59 59 48 45 45 53 55 55 55 55 55 56 57 57 58 58 59 61 60 61 58 59 62 62 62 60 58 57 57
66 66 67 66 63 62 61 59 57 55 55 55 56 55 54 54 47 45 46 48 48 49 51 52 53 53 50 47 52 52 54 57 59 55 53 52 52 51 57 63 58 56 56
65 64 64 63 60 57 54 53 53 52 51 52 50 48 46 47 47 44 44 43 43 45 48 50 49 48 46 45 48 50 50 54 57 59 59 52 50 55 51 60 60 56 57
63 62 60 57 53 53 50 49 46 44 43 41 41 43 45 45 45 43 43 43 43 44 46 47 49 46 44 44 44 49 52 54 54 56 56 57 56 55 57 57 59 58 56
57 54 52 51 48 46 42 41 39 38 37 40 42 43 46 48 47 45 43 43 45 44 44 48 50 46 44 43 44 46 45 47 53 53 55 54 56 57 58 61 62 61 62
49 47 45 41 39 39 38 38 39 39 39 41 42 42 43 46 48 46 43 42 43 43 47 48 44 42 42 43 44 44 44 50 51 51 51 54 56 59 58 58 58 59 59
41 37 37 37 38 39 39 37 36 36 36 38 41 41 42 43 45 46 45 44 45 46 46 45 44 42 43 44 45 49 52 52 52 52 53 55 57 57 57 56 55 56 55
36 36 36 36 35 35 36 35 35 37 39 38 40 40 39 39 41 42 40 41 42 43 40 42 43 45 46 48 51 53 54 53 51 51 52 52 53 55 57 57 55 56 55
34 34 34 34 35 35 35 35 38 38 39 39 39 39 42 41 40 39 39 39 38 38 39 40 41 44 46 50 50 51 53 52 53 52 51 51 51 50 53 56 56 55 55
33 34 34 35 35 35 35 35 35 41 42 40 39 39 39 39 38 38 38 37 37 37 38 41 43 46 51 52 51 51 52 53 54 53 53 52 51 51 50 55 56 57 57
36 36 35 35 35 35 36 37 39 40 40 42 43 41 41 39 38 37 37 37 41 41 41 43 47 49 50 51 52 52 53 54 56 55 53 53 53 54 54 56 57 57 57
36 36 36 37 37 37 38 39 43 42 42 43 44 44 43 41 39 37 38 42 45 46 49 51 49 50 51 53 53 54 54 55 56 58 57 57 57 57 57 58 57 48 51
36 37 37 38 39 41 43 44 45 44 43 43 44 46 50 48 51 52 51 52 50 49 50 48 50 52 53 54 55 55 55 55 56 57 59 59 59 59 58 58 57 57 58
35 36 35 40 43 44 43 42 43 43 42 43 45 48 35 45 51 53 52 54 52 51 49 49 52 53 55 55 55 56 57 58 62 59 61 59 58 57 58 57 57 57 57
36 35 38 41 43 43 42 43 42 42 43 44 44 45 38 51 51 51 55 54 53 53 52 52 53 54 54 56 56 56 57 60 64 61 59 61 60 64 64 63 62 61 57
36 35 35 36 37 37 41 44 43 41 44 46 44 43 43 44 47 50 53 53 54 54 53 54 53 53 57 57 57 58 58 61 66 64 62 64 64 62 62 62 62 60 59
35 34 34 34 34 34 35 37 40 39 42 45 43 42 41 41 43 44 45 48 52 55 55 55 54 57 57 57 59 61 59 59 69 66 66 66 66 60 64 64 63 62 59
34 33 32 32 32 32 32 34 35 36 38 39 40 39 38 39 40 41 42 45 53 57 58 61 57 57 59 59 61 56 43 41 53 47 68 68 66 65 66 66 64 63 60
33 32 32 32 31 32 32 32 33 34 33 34 35 35 36 37 38 39 40 47 51 54 57 60 60 59 57 55 47 39 38 39 49 41 67 67 65 64 63 64 64 62 60
MSLP
1006.51 1006.68 1006.96 1007.39 1007.48 1007.58 1007.98 1008.01 1008.07 1008.08 1008.35 1008.32 1008.32 1008.34 1008.40 1008.57 1008.66 1008.73 1008.90 1009.01 1009.15 1009.22 1009.26 1009.33 1009.45 1009.44 1009.54 1009.60 1009.55 1009.52 1009.59 1009.47 1009.17 1008.70 1008.40 1008.16 1008.14 1008.06 1007.98 1007.99 1007.78 1007.49 1007.18
1006.96 1007.52 1007.92 1008.10 1008.28 1008.44 1008.81 1008.85 1008.72 1008.83 1008.82 1008.74 1008.55 1008.38 1008.33 1008.24 1008.12 1008.11 1008.45 1008.37 1008.47 1008.47 1008.53 1008.66 1008.65 1008.67 1008.86 1008.93 1008.99 1009.07 1009.10 1009.03 1008.92 1008.49 1008.36 1008.15 1008.00 1007.84 1007.69 1007.67 1007.43 1006.90 1006.63
1007.97 1007.98 1008.26 1008.60 1008.87 1008.94 1009.02 1009.12 1009.11 1009.16 1009.11 1008.95 1008.84 1008.57 1008.44 1008.19 1007.97 1007.79 1007.66 1007.49 1007.54 1007.57 1007.65 1007.75 1007.77 1007.93 1008.00 1008.33 1008.34 1008.60 1008.64 1008.53 1008.21 1007.95 1007.73 1007.53 1007.37 1007.18 1007.31 1007.19 1006.99 1006.61 1006.14
1008.48 1008.53 1008.63 1008.67 1008.70 1008.88 1009.00 1009.00 1009.11 1009.15 1009.04 1008.95 1008.74 1008.55 1008.34 1008.13 1007.90 1007.72 1007.51 1007.25 1007.01 1006.75 1006.61 1006.52 1006.93 1007.04 1007.20 1007.37 1007.57 1007.72 1007.84 1007.86 1007.88 1007.60 1007.30 1007.24 1007.16 1006.92 1006.88 1007.03 1006.85 1006.63 1006.53
1008.66 1008.70 1008.82 1008.84 1008.81 1008.79 1008.82 1008.88 1008.92 1008.89 1008.77 1008.62 1008.43 1008.26 1008.11 1007.97 1007.74 1007.60 1007.49 1007.33 1007.20 1006.86 1006.60 1006.37 1006.12 1006.19 1006.36 1006.59 1006.66 1006.74 1007.01 1007.13 1007.11 1006.98 1006.72 1006.61 1006.52 1006.34 1006.49 1006.28 1006.51 1006.32 1006.14
1008.98 1008.99 1009.04 1008.86 1008.78 1008.68 1008.53 1008.42 1008.35 1008.20 1008.05 1007.97 1007.94 1007.93 1007.89 1007.79 1007.60 1007.50 1007.51 1007.42 1007.20 1006.98 1006.66 1006.50 1006.41 1006.28 1006.13 1006.05 1006.11 1006.07 1006.13 1006.21 1006.13 1006.14 1005.91 1005.80 1005.87 1005.95 1005.86 1005.96 1006.02 1006.21 1006.31
1009.32 1009.18 1009.02 1008.70 1008.50 1008.37 1008.16 1008.12 1008.09 1008.07 1008.04 1008.07 1007.96 1007.83 1007.64 1007.51 1007.42 1007.61 1007.67 1007.46 1007.22 1007.03 1006.79 1006.57 1006.33 1006.13 1006.10 1006.04 1005.77 1005.42 1005.22 1005.20 1005.15 1005.18 1005.02 1004.97 1005.03 1005.19 1005.47 1005.63 1005.75 1005.87 1006.05
1009.46 1009.35 1009.01 1008.72 1008.53 1008.42 1008.35 1008.32 1008.30 1008.27 1008.19 1008.05 1007.88 1007.70 1007.54 1007.54 1007.66 1007.89 1008.03 1007.69 1007.30 1007.01 1006.77 1006.56 1006.29 1006.04 1005.98 1006.03 1005.75 1005.37 1005.02 1004.69 1004.45 1004.23 1004.13 1004.08 1004.12 1004.31 1004.51 1004.70 1005.07 1005.33 1005.58
1009.49 1009.18 1008.91 1008.73 1008.64 1008.60 1008.54 1008.52 1008.59 1008.61 1008.52 1008.35 1008.14 1007.94 1007.79 1007.47 1007.60 1007.74 1007.92 1007.81 1007.37 1007.06 1006.77 1006.48 1006.21 1005.89 1005.79 1005.67 1005.60 1005.28 1004.69 1004.08 1003.75 1003.36 1003.21 1003.07 1003.14 1003.42 1003.60 1003.95 1004.30 1005.02 1005.04
1009.36 1009.15 1009.05 1009.01 1009.04 1009.11 1009.31 1009.29 1009.31 1009.26 1008.99 1008.70 1008.47 1008.54 1008.44 1007.90 1007.57 1007.47 1007.60 1007.36 1006.94 1006.46 1006.11 1005.66 1005.43 1005.28 1005.09 1005.02 1004.99 1004.65 1003.96 1003.18 1002.86 1002.49 1002.28 1002.32 1002.33 1002.37 1002.61 1002.93 1003.43 1004.06 1004.25
1009.62 1009.57 1009.58 1009.68 1009.96 1010.07 1010.06 1010.12 1010.25 1010.13 1009.77 1009.19 1008.68 1008.28 1007.90 1007.53 1007.04 1006.92 1006.89 1006.87 1006.33 1005.85 1005.41 1004.95 1004.69 1004.42 1004.28 1004.07 1003.84 1003.51 1002.86 1002.49 1002.48 1002.30 1001.96 1001.76 1001.70 1001.85 1002.00 1002.35 1002.70 1003.09 1003.44
1010.60 1010.80 1010.92 1010.97 1011.20 1011.27 1011.04 1010.67 1010.62 1010.29 1009.65 1008.90 1008.31 1007.71 1007.14 1006.57 1006.15 1005.92 1005.86 1005.75 1005.49 1005.33 1004.87 1004.45 1004.01 1003.63 1003.41 1003.29 1003.10 1002.51 1002.07 1001.97 1001.94 1001.73 1001.51 1001.24 1001.11 1001.12 1001.30 1001.51 1001.83 1002.19 1002.37
1011.91 1011.94 1012.05 1012.26 1011.99 1011.60 1011.18 1010.70 1010.31 1009.80 1009.11 1008.18 1007.71 1007.13 1006.46 1006.00 1005.62 1005.28 1005.03 1004.83 1004.60 1004.36 1004.15 1003.90 1003.63 1003.35 1002.93 1002.38 1001.63 1001.30 1001.25 1001.24 1000.99 1000.84 1000.55 1000.33 1000.32 1000.32 1000.33 1000.49 1000.65 1001.03 1001.39
1012.94 1012.98 1012.67 1012.30 1011.80 1011.41 1010.97 1010.67 1010.15 1009.51 1008.83 1008.05 1007.27 1006.56 1005.97 1005.60 1005.19 1004.82 1004.60 1004.49 1004.21 1003.90 1003.77 1003.73 1003.42 1002.81 1001.93 1001.20 1000.53 999.93 999.59 999.46 999.47 999.38 999.30 999.31 999.33 999.53 999.79 999.99 1000.29 1000.54 1000.90
1013.38 1013.08 1012.61 1012.14 1011.74 1011.13 1010.62 1010.08 1009.48 1008.83 1008.24 1007.50 1006.86 1006.33 1005.73 1005.09 1004.86 1004.73 1004.70 1004.51 1004.24 1004.06 1004.05 1003.43 1002.60 1001.64 1000.70 999.88 999.04 998.26 997.73 997.70 997.80 997.88 998.09 998.33 998.55 998.79 998.89 999.10 999.52 999.87 1000.13
1013.46 1013.03 1012.52 1011.90 1011.27 1010.68 1010.01 1009.19 1008.64 1008.00 1007.20 1006.57 1005.99 1005.64 1004.93 1004.55 1004.29 1004.23 1004.17 1004.04 1003.90 1003.90 1003.62 1002.78 1001.80 1000.79 999.80 998.70 997.86 996.81 996.34 996.28 996.06 996.01 996.25 996.74 997.37 998.10 998.63 998.63 999.03 999.29 999.42
1013.35 1012.76 1012.14 1011.51 1010.90 1010.30 1009.60 1008.97 1007.99 1006.73 1005.99 1005.38 1004.87 1004.39 1004.02 1003.72 1003.51 1003.45 1003.39 1003.29 1003.06 1003.21 1002.65 1001.61 1000.78 999.74 998.55 997.69 997.02 995.22 995.21 994.79 994.11 993.60 993.42 994.59 995.88 997.06 997.90 998.25 998.51 998.89 999.22
1012.88 1012.35 1011.81 1011.18 1010.50 1009.82 1009.18 1008.44 1007.62 1006.56 1005.64 1004.81 1004.09 1003.65 1003.17 1002.80 1002.54 1002.66 1002.76 1002.79 1002.13 1001.67 1001.17 1000.51 999.70 998.74 997.80 997.07 995.88 995.50 995.12 993.97 993.63 993.59 993.47 994.21 995.40 996.34 997.11 997.52 997.92 998.45 998.92
1012.38 1011.94 1011.47 1010.76 1010.01 1009.28 1008.53 1007.81 1006.92 1006.16 1005.56 1004.78 1003.94 1003.16 1002.65 1002.25 1002.12 1002.14 1002.25 1002.10 1001.25 1000.60 1000.08 999.36 998.80 998.00 997.22 996.39 995.92 996.01 994.84 994.14 993.93 994.00 994.30 994.68 995.36 996.03 996.61 996.89 997.44 998.14 998.76
1012.22 1011.79 1011.18 1010.36 1009.44 1008.60 1007.95 1007.17 1006.29 1005.82 1005.48 1004.91 1004.13 1003.34 1002.59 1002.18 1001.32 1001.01 1000.95 1000.49 1000.16 999.78 999.48 998.93 998.18 997.71 996.78 996.69 996.03 996.42 995.14 994.42 994.43 994.02 994.00 994.39 995.27 995.56 996.17 996.54 997.06 997.75 998.15
1012.19 1011.67 1011.03 1010.04 1009.10 1008.58 1008.10 1007.48 1006.74 1006.17 1005.70 1005.13 1004.43 1003.52 1003.01 1002.64 1001.48 1000.65 1000.07 999.83 999.74 999.35 999.13 998.79 998.07 997.67 997.11 996.34 995.72 996.02 994.79 993.97 992.65 993.84 994.24 994.75 995.00 995.09 996.23 996.68 996.54 997.46 998.33
1012.29 1011.87 1011.13 1010.30 1009.62 1008.94 1008.44 1007.88 1007.36 1006.85 1006.12 1005.24 1004.67 1003.97 1003.26 1002.38 1001.50 1000.64 1000.26 1000.04 999.74 999.42 998.83 998.65 997.98 997.60 997.00 995.91 995.46 995.20 995.35 993.92 993.31 994.16 993.42 994.21 994.54 994.94 995.57 995.94 996.56 997.15 998.29
1012.55 1012.16 1011.65 1011.08 1010.61 1009.90 1009.10 1008.29 1007.91 1007.63 1006.60 1005.64 1005.40 1004.93 1004.41 1003.72 1002.86 1002.00 1001.21 1000.62 999.94 999.46 998.95 998.16 998.29 997.45 996.61 996.34 996.61 996.33 995.67 994.66 993.92 993.88 993.83 994.03 994.59 994.90 995.49 995.95 996.62 997.54 998.37
1012.94 1012.63 1012.24 1011.78 1011.43 1010.95 1010.42 1009.69 1008.88 1008.33 1007.62 1006.80 1006.37 1005.94 1005.57 1005.01 1004.16 1003.30 1002.50 1001.61 1000.59 999.48 998.84 998.69 998.85 998.21 997.05 997.28 996.84 996.59 996.14 994.81 994.42 994.42 994.44 994.79 995.23 995.70 995.74 996.36 996.85 997.64 998.68
1013.51 1013.28 1012.97 1012.57 1012.13 1011.75 1011.28 1010.71 1010.19 1009.51 1008.88 1008.28 1007.66 1007.16 1006.58 1005.82 1005.05 1004.19 1003.30 1002.24 1000.81 999.14 998.81 997.98 998.56 998.91 998.21 998.20 997.96 997.42 996.08 995.75 995.40 995.29 995.40 995.58 995.96 996.28 996.55 996.61 997.05 997.78 998.80
1014.29 1014.00 1013.71 1013.37 1012.94 1012.53 1012.09 1011.56 1011.08 1010.56 1009.98 1009.43 1008.87 1008.30 1007.58 1006.80 1005.99 1005.16 1004.18 1002.79 1001.66 1000.65 999.46 998.54 998.19 998.72 999.12 999.30 998.67 997.44 997.52 997.27 996.73 996.53 996.52 996.70 997.06 997.40 997.59 997.74 997.83 998.40 999.05
Wind_Speed
6 6 8 8 7 7 5 6 6 6 6 6 5 5 5 7 8 7 8 9 9 8 10 9 8 7 7 7 6 6 6 5 8 5 3 3 3 6 7 6 7 6 5
5 5 6 6 6 5 5 6 6 6 6 7 7 7 8 8 7 9 13 11 12 12 12 11 12 10 12 11 10 11 10 8 9 14 6 5 6 5 4 6 8 9 9
5 6 5 4 3 4 4 5 5 6 6 7 8 8 9 9 9 9 10 10 15 15 15 14 15 14 15 12 9 11 9 9 9 9 9 5 3 2 4 7 6 9 7
5 5 5 4 4 4 4 5 5 6 7 7 8 9 10 10 11 11 11 11 11 12 11 15 18 18 16 15 13 15 12 12 12 12 12 11 7 7 6 2 2 2 6
6 7 6 5 5 6 5 5 6 7 8 9 10 10 10 10 9 10 8 9 9 11 11 11 11 10 15 17 12 14 14 12 11 12 11 10 9 4 4 3 3 0 3
7 8 9 8 8 7 7 7 8 9 8 8 9 10 10 9 11 12 8 9 11 12 12 12 12 14 15 13 11 16 14 14 15 12 11 11 7 3 2 3 1 1 3
8 10 11 11 11 10 9 8 8 7 7 8 10 11 12 12 10 7 7 8 9 10 11 11 12 11 12 13 14 14 14 17 18 15 17 15 14 10 4 5 3 2 3
10 11 11 12 12 10 10 9 8 8 9 9 10 10 11 9 7 7 8 8 9 10 11 12 13 14 14 14 16 15 14 13 11 9 11 13 13 10 9 7 5 3 3
12 12 12 12 13 12 12 11 10 10 10 10 11 13 13 12 10 13 12 10 11 12 12 13 13 13 14 13 15 17 17 15 14 17 16 14 13 13 12 8 6 5 5
12 12 12 12 12 12 12 12 10 10 12 11 12 12 16 16 18 19 16 9 11 11 13 15 18 17 17 18 16 16 14 14 12 12 10 6 10 12 16 12 8 8 7
13 14 13 13 13 12 12 11 12 13 13 13 13 12 14 13 14 17 17 10 9 9 9 9 9 15 16 19 20 13 14 9 11 9 8 6 5 7 7 7 8 7 8
14 14 14 13 12 11 13 12 11 11 12 12 11 12 10 11 13 14 17 19 17 10 11 9 11 14 13 14 11 13 14 11 9 10 10 8 7 7 7 8 10 11 11
14 14 14 13 12 10 11 11 10 10 10 10 9 9 10 9 9 13 11 11 15 12 9 10 14 15 16 17 22 21 17 10 10 10 11 10 11 9 7 7 7 8 9
13 11 10 11 12 10 8 8 8 8 8 9 9 9 9 9 8 7 5 4 6 4 5 7 13 18 22 21 16 14 10 10 11 11 11 10 9 8 9 7 6 8 7
9 10 10 9 10 9 9 8 8 10 10 10 10 9 9 10 8 8 7 8 7 9 11 9 9 9 11 10 10 11 9 11 11 12 11 10 8 5 8 7 6 4 7
10 9 8 8 8 8 8 9 13 18 23 23 23 17 11 16 18 17 17 17 15 13 6 9 10 10 10 9 10 12 9 11 12 13 14 13 12 11 11 5 4 4 8
10 10 8 10 7 8 8 8 10 10 15 15 17 17 18 18 17 15 14 14 15 10 8 8 9 10 9 9 9 12 8 7 8 6 14 13 12 11 9 11 7 8 7
9 15 8 7 8 8 8 8 8 7 8 8 10 10 10 13 13 11 11 8 8 6 7 8 9 8 9 8 11 6 7 10 5 2 6 10 10 10 10 10 9 9 7
8 7 8 8 8 9 8 8 6 7 7 8 9 8 6 8 8 9 7 6 7 7 7 6 6 7 8 5 5 5 11 9 5 2 5 7 9 10 10 9 8 8 7
8 12 11 8 8 6 6 8 7 6 6 7 7 8 7 8 7 4 6 7 2 3 4 6 8 7 8 2 6 6 9 9 5 4 1 8 8 5 8 6 5 5 5
7 7 11 8 7 6 7 8 7 7 7 7 8 10 8 8 9 9 6 4 2 4 3 6 8 6 7 6 6 3 9 9 5 9 6 5 4 6 9 11 5 5 8
6 7 7 8 8 8 7 7 7 9 8 7 8 10 13 8 9 4 6 6 5 5 6 5 7 6 7 8 7 8 6 7 6 12 4 5 11 8 9 10 9 9 10
6 7 7 8 9 10 9 8 8 10 10 8 9 10 11 10 11 11 10 8 6 5 6 6 6 9 7 2 2 5 8 9 6 7 5 7 10 8 4 7 8 9 8
7 8 8 8 8 8 9 10 9 10 11 11 11 10 10 10 10 11 10 10 9 8 5 6 6 3 8 4 5 4 6 6 7 6 8 8 7 4 5 9 6 10 9
8 9 8 8 9 8 9 9 10 10 10 11 11 11 10 10 10 11 11 11 11 8 8 8 9 9 10 10 6 9 11 14 13 10 7 9 14 14 9 6 7 9 11
9 9 8 7 8 9 9 9 9 9 10 10 10 10 10 10 11 11 12 13 13 13 17 12 13 14 13 8 12 14 15 14 13 13 10 8 8 7 6 7 9 6 10
Wind_Direction
56 46 39 25 23 29 15 1 1 4 350 327 309 286 249 224 223 221 223 228 234 226 228 237 240 238 245 250 253 258 262 254 261 267 286 285 291 292 298 294 286 285 285
60 69 65 28 19 25 6 3 357 344 335 321 311 297 283 273 266 236 239 249 244 244 244 246 245 245 242 246 256 259 261 272 278 276 263 266 260 224 256 275 278 273 268
10 12 63 51 13 359 343 328 318 312 301 297 292 291 289 288 287 285 280 264 239 243 249 246 252 253 256 255 254 264 265 266 261 259 266 246 241 281 289 270 274 270 272
8 1 355 360 346 313 289 282 277 277 284 288 288 286 286 286 285 284 284 283 283 281 271 257 254 253 255 255 250 252 255 258 262 267 272 273 268 260 235 168 315 1 339
346 334 327 309 300 295 288 280 278 274 273 275 278 279 280 280 278 279 294 305 309 306 305 299 288 276 263 255 252 254 250 251 255 256 260 258 253 250 226 223 161 190 313
332 313 307 302 292 286 282 277 268 267 269 274 278 283 285 286 301 307 303 299 293 286 285 286 289 293 294 286 256 250 251 256 250 250 256 253 246 240 233 230 222 23 326
315 308 306 309 306 300 301 305 308 306 305 298 292 287 282 280 285 9 6 325 314 306 299 294 290 287 307 304 299 285 258 248 246 254 255 249 252 248 247 263 227 210 240
309 306 308 306 308 315 318 316 316 307 302 301 309 315 315 315 32 67 2 306 303 294 285 285 284 282 277 277 280 282 284 280 277 258 242 248 252 248 228 227 206 204 243
307 309 313 324 322 319 313 319 336 333 322 316 314 310 305 300 328 323 321 309 296 287 286 287 285 286 287 291 288 282 274 269 267 259 254 248 224 228 230 232 216 211 234
314 323 326 328 328 340 342 332 332 323 314 313 309 303 291 285 284 290 288 283 279 277 276 273 270 263 266 268 267 263 265 262 269 280 266 245 237 227 215 217 206 211 221
327 328 334 343 343 328 329 326 321 310 300 291 285 282 280 275 278 277 273 267 266 272 271 273 270 266 262 261 267 248 249 269 278 281 269 264 205 206 205 202 206 214 227
346 339 332 330 335 326 316 305 297 289 283 277 281 283 278 282 276 269 263 252 256 256 263 266 272 275 286 282 264 260 255 248 259 261 258 250 235 219 212 219 223 224 221
334 325 327 319 302 296 291 285 287 281 274 278 276 277 282 281 279 277 270 272 262 253 253 265 292 294 290 280 269 264 250 252 243 247 246 241 234 236 237 232 223 217 222
326 313 299 301 304 303 297 294 287 289 283 277 280 280 285 285 287 293 285 321 309 283 302 309 295 283 269 260 268 265 245 239 236 234 237 239 235 228 232 213 217 216 208
310 307 301 299 298 294 288 281 273 271 269 279 282 280 280 277 275 279 291 293 295 299 320 297 290 285 286 274 265 262 242 235 228 228 230 228 226 240 224 207 193 209 197
312 307 300 299 297 294 294 296 276 263 268 267 267 264 274 264 272 271 271 275 282 288 283 277 277 275 269 274 275 264 245 245 237 226 220 216 211 212 225 222 177 191 208
304 304 304 306 304 304 299 295 299 302 277 270 271 269 263 260 267 265 267 266 266 261 248 263 269 274 287 282 279 277 282 259 251 256 212 197 183 191 193 208 204 201 199
303 305 304 303 298 294 290 287 291 302 315 317 306 277 283 277 260 250 255 270 275 225 240 251 261 281 286 282 276 309 306 301 342 124 108 142 160 167 176 194 189 184 182
319 313 311 302 293 286 283 277 284 295 310 318 323 325 291 271 258 242 226 241 266 270 286 288 289 288 301 308 300 318 289 304 320 89 125 141 150 162 174 171 170 186 183
318 317 311 302 297 297 336 329 315 334 326 330 324 321 327 338 313 277 219 237 220 252 295 310 310 314 315 312 288 322 298 301 289 278 132 125 139 154 165 145 158 155 165
321 328 314 305 321 352 354 343 351 343 337 336 330 330 338 323 306 308 300 302 53 324 305 297 310 332 338 320 297 328 279 270 212 166 158 127 152 182 131 197 177 158 121
334 339 335 344 350 351 348 347 344 348 338 334 348 354 339 345 332 336 29 21 360 334 302 312 309 335 310 298 324 325 325 302 74 118 272 130 171 171 139 123 143 131 128
354 359 0 0 2 348 352 354 358 353 336 1 9 1 1 356 355 357 355 352 326 305 299 301 323 326 311 344 338 303 302 322 49 84 64 68 69 50 67 123 132 126 131
8 11 10 7 9 3 359 355 355 356 351 358 358 359 358 351 350 348 345 335 328 318 287 259 244 318 354 357 323 346 324 350 74 50 53 51 62 138 83 107 117 121 126
20 19 16 11 8 7 359 4 6 0 358 357 355 353 348 347 348 346 343 330 329 319 303 290 112 211 237 298 343 13 21 36 39 16 44 47 54 38 27 38 66 119 123
26 24 19 13 12 11 8 5 6 5 2 357 354 350 348 348 348 345 340 343 351 357 4 2 66 89 67 51 35 28 26 26 24 15 45 45 64 42 16 43 22 114 123